Time,TemperatureF,DewpointF,PressureIn,WindDirection,WindDirectionDegrees,WindSpeedMPH,WindSpeedGustMPH,Humidity,HourlyPrecipIn,Conditions,Clouds,dailyrainin,SoftwareType,DateUTC
2013-02-17 00:02:00,27.0,25.0,29.91,North,0,0.0,1.0,93,0.00,,,0.28,,2013-02-17 05:02:00,
2013-02-17 00:12:00,27.0,25.0,29.91,North,0,0.0,1.0,93,0.00,,,0.28,,2013-02-17 05:12:00,
2013-02-17 00:22:00,27.0,25.0,29.91,North,0,0.0,1.0,93,0.00,,,0.28,,2013-02-17 05:22:00,
2013-02-17 00:33:00,27.0,25.0,29.92,North,0,0.0,0.0,93,0.00,,,0.28,,2013-02-17 05:33:00,
2013-02-17 00:42:00,27.0,25.0,29.92,North,0,0.0,0.0,93,0.00,,,0.28,,2013-02-17 05:42:00,
2013-02-17 00:52:00,27.0,25.0,29.92,North,0,0.0,1.0,93,0.00,,,0.28,,2013-02-17 05:52:00,
2013-02-17 01:02:00,26.0,24.0,29.93,North,0,0.0,0.0,92,0.00,,,0.28,,2013-02-17 06:02:00,
2013-02-17 01:11:00,26.0,24.0,29.93,North,0,0.0,0.0,92,0.00,,,0.28,,2013-02-17 06:11:00,
2013-02-17 01:21:00,26.0,24.0,29.93,North,0,0.0,1.0,92,0.00,,,0.28,,2013-02-17 06:21:00,
2013-02-17 01:32:00,26.0,24.0,29.94,North,0,0.0,3.0,91,0.00,,,0.28,,2013-02-17 06:32:00,
2013-02-17 01:42:00,26.0,24.0,29.94,North,0,0.0,3.0,91,0.00,,,0.28,,2013-02-17 06:42:00,
2013-02-17 01:51:00,26.0,24.0,29.94,North,0,0.0,0.0,91,0.00,,,0.28,,2013-02-17 06:51:00,
2013-02-17 02:01:00,25.0,22.0,29.94,North,0,0.0,0.0,90,0.00,,,0.28,,2013-02-17 07:01:00,
2013-02-17 02:11:00,25.0,22.0,29.95,North,0,0.0,1.0,90,0.00,,,0.28,,2013-02-17 07:11:00,
2013-02-17 02:21:00,25.0,22.0,29.95,North,0,0.0,1.0,90,0.00,,,0.28,,2013-02-17 07:21:00,
2013-02-17 02:32:00,25.0,22.0,29.95,North,0,0.0,0.0,89,0.00,,,0.28,,2013-02-17 07:32:00,
2013-02-17 02:42:00,25.0,22.0,29.95,North,0,0.0,0.0,89,0.00,,,0.28,,2013-02-17 07:42:00,
2013-02-17 02:51:00,25.0,22.0,29.95,North,0,0.0,0.0,89,0.00,,,0.28,,2013-02-17 07:51:00,
2013-02-17 03:01:00,24.0,21.0,29.95,North,0,0.0,0.0,89,0.00,,,0.28,,2013-02-17 08:01:00,
2013-02-17 03:11:00,24.0,21.0,29.95,North,0,0.0,0.0,89,0.00,,,0.28,,2013-02-17 08:11:00,
2013-02-17 03:21:00,24.0,21.0,29.95,North,0,0.0,0.0,89,0.00,,,0.28,,2013-02-17 08:21:00,
2013-02-17 03:32:00,24.0,21.0,29.95,North,0,0.0,1.0,89,0.00,,,0.28,,2013-02-17 08:32:00,
2013-02-17 03:42:00,24.0,21.0,29.95,North,0,0.0,1.0,89,0.00,,,0.28,,2013-02-17 08:42:00,
2013-02-17 03:52:00,24.0,21.0,29.95,North,0,0.0,0.0,89,0.00,,,0.28,,2013-02-17 08:52:00,
2013-02-17 04:02:00,23.0,20.0,29.96,North,0,0.0,0.0,89,0.00,,,0.28,,2013-02-17 09:02:00,
2013-02-17 04:11:00,23.0,20.0,29.96,North,0,0.0,0.0,89,0.00,,,0.28,,2013-02-17 09:11:00,
2013-02-17 04:21:00,23.0,20.0,29.96,North,0,0.0,1.0,88,0.00,,,0.28,,2013-02-17 09:21:00,
2013-02-17 04:32:00,23.0,20.0,29.97,North,0,0.0,0.0,89,0.00,,,0.28,,2013-02-17 09:32:00,
2013-02-17 04:42:00,23.0,20.0,29.97,North,0,0.0,0.0,89,0.00,,,0.28,,2013-02-17 09:42:00,
2013-02-17 04:52:00,23.0,20.0,29.97,North,0,0.0,1.0,89,0.00,,,0.28,,2013-02-17 09:52:00,
2013-02-17 05:01:00,23.0,20.0,29.98,North,0,0.0,1.0,88,0.00,,,0.28,,2013-02-17 10:01:00,
2013-02-17 05:11:00,23.0,20.0,29.99,North,0,0.0,0.0,88,0.00,,,0.28,,2013-02-17 10:11:00,
2013-02-17 05:21:00,23.0,20.0,29.99,North,0,0.0,0.0,88,0.00,,,0.28,,2013-02-17 10:21:00,
2013-02-17 05:32:00,23.0,20.0,30.00,North,0,0.0,0.0,88,0.00,,,0.28,,2013-02-17 10:32:00,
2013-02-17 05:42:00,23.0,20.0,30.00,North,0,0.0,0.0,88,0.00,,,0.28,,2013-02-17 10:42:00,
2013-02-17 05:52:00,23.0,20.0,30.00,North,0,0.0,0.0,87,0.00,,,0.28,,2013-02-17 10:52:00,
2013-02-17 06:01:00,22.0,19.0,30.01,North,0,0.0,0.0,87,0.00,,,0.28,,2013-02-17 11:01:00,
2013-02-17 06:11:00,22.0,19.0,30.01,North,0,0.0,0.0,87,0.00,,,0.28,,2013-02-17 11:11:00,
2013-02-17 06:21:00,22.0,18.0,30.02,North,0,0.0,0.0,86,0.00,,,0.28,,2013-02-17 11:21:00,
2013-02-17 06:32:00,22.0,18.0,30.02,North,0,0.0,1.0,86,0.00,,,0.28,,2013-02-17 11:32:00,
2013-02-17 06:42:00,22.0,18.0,30.02,North,0,0.0,1.0,86,0.00,,,0.28,,2013-02-17 11:42:00,
2013-02-17 06:52:00,22.0,18.0,30.02,North,0,0.0,0.0,85,0.00,,,0.28,,2013-02-17 11:52:00,
2013-02-17 07:03:00,22.0,18.0,30.03,North,0,0.0,2.0,84,0.00,,,0.28,,2013-02-17 12:03:00,
2013-02-17 07:11:00,22.0,18.0,30.03,North,0,0.0,2.0,84,0.00,,,0.28,,2013-02-17 12:11:00,
2013-02-17 07:22:00,22.0,18.0,30.03,North,0,0.0,2.0,84,0.00,,,0.28,,2013-02-17 12:22:00,
2013-02-17 07:32:00,22.0,17.0,30.05,North,0,0.0,0.0,81,0.00,,,0.28,,2013-02-17 12:32:00,
2013-02-17 07:42:00,22.0,17.0,30.05,North,0,0.0,0.0,81,0.00,,,0.28,,2013-02-17 12:42:00,
2013-02-17 07:52:00,22.0,17.0,30.05,North,0,0.0,1.0,80,0.00,,,0.28,,2013-02-17 12:52:00,
2013-02-17 08:02:00,22.0,17.0,30.05,North,0,0.0,2.0,80,0.00,,,0.28,,2013-02-17 13:02:00,
2013-02-17 08:12:00,22.0,17.0,30.05,North,0,0.0,2.0,80,0.00,,,0.28,,2013-02-17 13:12:00,
2013-02-17 08:22:00,22.0,17.0,30.06,North,0,0.0,0.0,80,0.00,,,0.27,,2013-02-17 13:22:00,
2013-02-17 08:32:00,23.0,17.0,30.07,North,0,0.0,6.0,76,0.00,,,0.25,,2013-02-17 13:32:00,
2013-02-17 08:42:00,23.0,17.0,30.07,North,0,0.0,6.0,76,0.00,,,0.25,,2013-02-17 13:42:00,
2013-02-17 08:51:00,25.0,17.0,30.07,North,0,0.0,5.0,71,0.00,,,0.24,,2013-02-17 13:51:00,
2013-02-17 09:01:00,26.0,18.0,30.09,North,0,0.0,2.0,71,0.00,,,0.21,,2013-02-17 14:01:00,
2013-02-17 09:11:00,26.0,18.0,30.09,North,0,0.0,2.0,71,0.00,,,0.21,,2013-02-17 14:11:00,
2013-02-17 09:22:00,26.0,17.0,30.09,North,354,1.0,5.0,69,0.00,,,0.20,,2013-02-17 14:22:00,
2013-02-17 09:32:00,26.0,15.0,30.10,North,354,2.0,5.0,63,0.00,,,0.20,,2013-02-17 14:32:00,
2013-02-17 09:42:00,26.0,15.0,30.10,North,354,2.0,5.0,63,0.00,,,0.20,,2013-02-17 14:42:00,
2013-02-17 09:53:00,27.0,16.0,30.10,North,354,1.0,5.0,62,0.00,,,0.20,,2013-02-17 14:53:00,
2013-02-17 10:02:00,28.0,17.0,30.10,North,353,1.0,4.0,63,0.00,,,0.19,,2013-02-17 15:02:00,
2013-02-17 10:11:00,28.0,17.0,30.10,North,353,1.0,4.0,63,0.00,,,0.19,,2013-02-17 15:11:00,
2013-02-17 10:21:00,28.0,17.0,30.11,NNW,330,6.0,10.0,64,0.00,,,0.19,,2013-02-17 15:21:00,
2013-02-17 10:32:00,29.0,17.0,30.11,North,0,0.0,8.0,60,0.00,,,0.18,,2013-02-17 15:32:00,
2013-02-17 10:42:00,29.0,17.0,30.11,North,0,0.0,8.0,60,0.00,,,0.18,,2013-02-17 15:42:00,
2013-02-17 10:52:00,29.0,17.0,30.11,North,0,0.0,8.0,60,0.00,,,0.18,,2013-02-17 15:52:00,
2013-02-17 11:01:00,29.0,15.0,30.12,NNW,338,2.0,9.0,55,0.01,,,0.17,,2013-02-17 16:01:00,
2013-02-17 11:12:00,29.0,15.0,30.12,NNW,338,2.0,9.0,55,0.01,,,0.17,,2013-02-17 16:12:00,
2013-02-17 11:21:00,30.0,14.0,30.12,NNW,341,2.0,9.0,51,0.01,,,0.16,,2013-02-17 16:21:00,
2013-02-17 11:32:00,31.0,18.0,30.12,North,7,3.0,5.0,58,0.03,,,0.18,,2013-02-17 16:32:00,
2013-02-17 11:51:00,31.0,16.0,30.12,North,1,1.0,6.0,54,0.03,,,0.18,,2013-02-17 16:51:00,
2013-02-17 12:02:00,32.0,19.0,30.12,NNW,335,1.0,12.0,57,0.03,,,0.19,,2013-02-17 17:02:00,
2013-02-17 12:21:00,32.0,17.0,30.12,North,359,1.0,7.0,53,0.04,,,0.20,,2013-02-17 17:21:00,
2013-02-17 12:32:00,33.0,19.0,30.12,NNW,327,2.0,6.0,56,0.03,,,0.20,,2013-02-17 17:32:00,
2013-02-17 12:52:00,33.0,19.0,30.12,NW,324,2.0,5.0,56,0.03,,,0.19,,2013-02-17 17:52:00,
2013-02-17 13:02:00,33.0,18.0,30.11,North,0,0.0,4.0,53,0.03,,,0.19,,2013-02-17 18:02:00,
2013-02-17 13:22:00,33.0,18.0,30.11,North,0,0.0,4.0,53,0.03,,,0.19,,2013-02-17 18:22:00,
2013-02-17 13:33:00,33.0,15.0,30.10,NW,321,2.0,5.0,48,0.03,,,0.19,,2013-02-17 18:33:00,
2013-02-17 13:42:00,33.0,15.0,30.10,NW,321,2.0,5.0,48,0.03,,,0.19,,2013-02-17 18:42:00,
2013-02-17 13:52:00,35.0,20.0,30.10,NW,321,2.0,7.0,53,0.03,,,0.18,,2013-02-17 18:52:00,
2013-02-17 14:02:00,34.0,15.0,30.10,North,0,0.0,7.0,46,0.03,,,0.18,,2013-02-17 19:02:00,
2013-02-17 14:11:00,34.0,15.0,30.10,North,0,0.0,7.0,46,0.03,,,0.18,,2013-02-17 19:11:00,
2013-02-17 14:21:00,36.0,18.0,30.09,NNW,344,2.0,7.0,48,0.02,,,0.18,,2013-02-17 19:21:00,
2013-02-17 14:32:00,36.0,17.0,30.09,NW,324,2.0,6.0,46,0.02,,,0.19,,2013-02-17 19:32:00,
2013-02-17 14:52:00,37.0,17.0,30.09,NW,323,3.0,6.0,43,0.03,,,0.19,,2013-02-17 19:52:00,
2013-02-17 15:02:00,37.0,17.0,30.09,NW,321,2.0,5.0,43,0.03,,,0.20,,2013-02-17 20:02:00,
2013-02-17 15:22:00,36.0,16.0,30.09,NNW,335,4.0,8.0,43,0.03,,,0.19,,2013-02-17 20:22:00,
2013-02-17 15:32:00,37.0,17.0,30.10,NNW,337,1.0,5.0,44,0.03,,,0.20,,2013-02-17 20:32:00,
2013-02-17 15:52:00,37.0,17.0,30.10,NNW,337,1.0,5.0,44,0.03,,,0.20,,2013-02-17 20:52:00,
2013-02-17 16:02:00,37.0,17.0,30.10,NW,323,1.0,7.0,43,0.02,,,0.19,,2013-02-17 21:02:00,
2013-02-17 16:21:00,36.0,15.0,30.11,NNW,329,2.0,9.0,42,0.02,,,0.19,,2013-02-17 21:21:00,
2013-02-17 16:32:00,36.0,15.0,30.11,North,0,0.0,5.0,41,0.01,,,0.18,,2013-02-17 21:32:00,
2013-02-17 16:52:00,35.0,14.0,30.11,NNW,332,1.0,4.0,41,0.01,,,0.18,,2013-02-17 21:52:00,
2013-02-17 17:01:00,35.0,16.0,30.11,North,0,0.0,4.0,46,0.00,,,0.18,,2013-02-17 22:01:00,
2013-02-17 17:32:00,34.0,14.0,30.13,North,0,0.0,3.0,43,0.00,,,0.17,,2013-02-17 22:32:00,
2013-02-17 17:42:00,34.0,14.0,30.13,North,0,0.0,3.0,43,0.00,,,0.17,,2013-02-17 22:42:00,
2013-02-17 17:52:00,34.0,14.0,30.14,North,0,0.0,1.0,44,0.00,,,0.17,,2013-02-17 22:52:00,
2013-02-17 18:02:00,33.0,15.0,30.14,North,0,0.0,2.0,47,0.00,,,0.17,,2013-02-17 23:02:00,
2013-02-17 18:21:00,32.0,14.0,30.14,North,0,0.0,3.0,46,0.00,,,0.16,,2013-02-17 23:21:00,
2013-02-17 18:32:00,31.0,14.0,30.15,North,0,0.0,0.0,49,0.00,,,0.16,,2013-02-17 23:32:00,
2013-02-17 18:42:00,31.0,14.0,30.15,North,0,0.0,0.0,49,0.00,,,0.16,,2013-02-17 23:42:00,
2013-02-17 18:52:00,30.0,12.0,30.15,North,0,0.0,0.0,46,0.00,,,0.16,,2013-02-17 23:52:00,
2013-02-17 19:02:00,28.0,13.0,30.16,North,0,0.0,0.0,53,0.00,,,0.16,,2013-02-18 00:02:00,
2013-02-17 19:11:00,28.0,13.0,30.16,North,0,0.0,0.0,53,0.00,,,0.16,,2013-02-18 00:11:00,
2013-02-17 19:22:00,28.0,14.0,30.17,North,0,0.0,0.0,55,0.00,,,0.16,,2013-02-18 00:22:00,
2013-02-17 19:32:00,27.0,13.0,30.18,North,0,0.0,0.0,56,0.00,,,0.16,,2013-02-18 00:32:00,
2013-02-17 19:41:00,27.0,13.0,30.18,North,0,0.0,0.0,56,0.00,,,0.16,,2013-02-18 00:41:00,
2013-02-17 19:52:00,27.0,13.0,30.18,North,0,0.0,0.0,55,0.00,,,0.16,,2013-02-18 00:52:00,
2013-02-17 20:01:00,26.0,14.0,30.19,North,0,0.0,0.0,60,0.00,,,0.16,,2013-02-18 01:01:00,
2013-02-17 20:12:00,26.0,14.0,30.19,North,0,0.0,0.0,60,0.00,,,0.16,,2013-02-18 01:12:00,
2013-02-17 20:21:00,26.0,14.0,30.19,North,0,0.0,0.0,61,0.00,,,0.16,,2013-02-18 01:21:00,
2013-02-17 20:32:00,25.0,15.0,30.20,North,0,0.0,0.0,64,0.00,,,0.16,,2013-02-18 01:32:00,
2013-02-17 20:42:00,25.0,15.0,30.20,North,0,0.0,0.0,64,0.00,,,0.16,,2013-02-18 01:42:00,
2013-02-17 20:51:00,25.0,15.0,30.20,North,0,0.0,0.0,64,0.00,,,0.16,,2013-02-18 01:51:00,
2013-02-17 21:02:00,25.0,15.0,30.21,North,0,0.0,0.0,65,0.00,,,0.15,,2013-02-18 02:02:00,
2013-02-17 21:11:00,25.0,15.0,30.21,North,0,0.0,0.0,65,0.00,,,0.15,,2013-02-18 02:11:00,
2013-02-17 21:22:00,25.0,15.0,30.21,North,0,0.0,0.0,65,0.00,,,0.15,,2013-02-18 02:22:00,
2013-02-17 21:32:00,25.0,15.0,30.23,North,0,0.0,0.0,65,0.00,,,0.15,,2013-02-18 02:32:00,
2013-02-17 21:42:00,25.0,15.0,30.23,North,0,0.0,0.0,65,0.00,,,0.15,,2013-02-18 02:42:00,
2013-02-17 21:52:00,25.0,15.0,30.23,North,0,0.0,0.0,66,0.00,,,0.15,,2013-02-18 02:52:00,
2013-02-17 22:02:00,24.0,14.0,30.23,North,0,0.0,0.0,65,0.00,,,0.15,,2013-02-18 03:02:00,
2013-02-17 22:11:00,24.0,14.0,30.23,North,0,0.0,0.0,65,0.00,,,0.15,,2013-02-18 03:11:00,
2013-02-17 22:21:00,24.0,13.0,30.24,North,0,0.0,0.0,63,0.00,,,0.15,,2013-02-18 03:21:00,
2013-02-17 22:32:00,24.0,13.0,30.24,North,0,0.0,0.0,63,0.00,,,0.15,,2013-02-18 03:32:00,
2013-02-17 22:42:00,24.0,13.0,30.24,North,0,0.0,0.0,63,0.00,,,0.15,,2013-02-18 03:42:00,
2013-02-17 22:51:00,24.0,14.0,30.24,North,0,0.0,0.0,64,0.00,,,0.15,,2013-02-18 03:51:00,
2013-02-17 23:01:00,23.0,13.0,30.25,North,0,0.0,0.0,66,0.00,,,0.15,,2013-02-18 04:01:00,
2013-02-17 23:11:00,23.0,13.0,30.25,North,0,0.0,0.0,66,0.00,,,0.15,,2013-02-18 04:11:00,
2013-02-17 23:21:00,23.0,13.0,30.25,North,0,0.0,0.0,66,0.00,,,0.15,,2013-02-18 04:21:00,
2013-02-17 23:32:00,23.0,13.0,30.26,North,0,0.0,0.0,65,0.00,,,0.15,,2013-02-18 04:32:00,
2013-02-17 23:42:00,23.0,13.0,30.26,North,0,0.0,0.0,65,0.00,,,0.15,,2013-02-18 04:42:00,
2013-02-17 23:51:00,23.0,14.0,30.27,North,0,0.0,0.0,67,0.00,,,0.15,,2013-02-18 04:51:00,